Weather in Azigulovo

Russia / Sverdlovsk Oblast     56°32′03″N   58°17′22″E
temp.,
°C
wind,
m/s
gust,
m/s
humid.,
%
clouds,
%
prec.,
mm/h
press.,
hPa
HPBL,
m
27 january, thu
thu2723:00−18ene0099100 0.0 10209
02:00−13sw2396100 0.1 101980
05:00−10ssw4119595 0.3 1019497
08:00−10sw51190100 0.1 1019546
11:00−9sw61192100 0.3 1020926
14:00−8sw61188100 0.3 1021890
17:00−10sw5989100 0.4 1023310
20:00−16s349883 0.0 102542
28 january, fri
fri2823:00−16s379880 0.1 102588
02:00−20sse2210094 0.0 102615
05:00−18sse229986 0.1 102625
08:00−21sse2210091 0.0 102611
11:00−16s2210098 0.1 102653
14:00−11sse129270 0.0 1024137
17:00−14ese11975 0.0 10249
20:00−18e1110060 0.0 10259
29 january, sat
sat2923:00−18ene1199100 0.0 10249
02:00−16ene1197100 0.0 10239
05:00−14e1295100 0.0 102145
08:00−13ese2395100 0.0 102044
11:00−9se3990100 0.0 1019222
14:00−7se4787100 0.0 1017301
17:00−8se2491100 0.0 101760
20:00−11ese2293100 0.0 101640
30 january, sun
sun3023:00−13se1194100 0.0 101610
02:00−12sse2196100 0.0 101522
05:00−13se229677 0.0 101426
08:00−12sse269695 0.1 1012160
11:00−10sse3794100 0.3 1011251
14:00−7s4791100 0.3 1010421
17:00−7sse4893100 0.4 1009236
20:00−7se3794100 0.0 1008158
31 january, mon
mon3123:00−7s3895100 0.0 1008152
02:00−5s4894100 0.1 1008192
05:00−5ssw489097 0.1 1010207
08:00−10sse3597100 0.1 101178
11:00−7s41194100 0.2 1013544
14:00−4ssw51188100 0.1 1013857
17:00−4s51092100 0.1 1013486
20:00−3s61392100 0.2 1013551